STARLINK-33547, 62283

Orbit data source: Space-Track

STARLINK-33547, 62283 is a payload satellite owned by SpaceX/Seattle (US) in LEO that was launched on Sun, 08 Dec 2024 UTC via an FALCON 9 launch vehicle from the Air Force Eastern Test Range (AFETR). Payload-class satellites include a variety of spacecraft equipped with specific instruments for various scientific and technological missions. These include communications satellites like Starlink; space stations such as the ISS; scientific satellites like the Hubble; Earth observation satellites from companies like Planet Labs, Umbra, and HawkEye 360; GPS; miniature CubeSats for education and research; and military/defense satellites.

Loading next visibility...
Identifier
62283, 2024-237S
Orbit
LEO
Country
Flag of USUS
Related business
Manufacturer
SpaceX/Seattle
Mission
Operational Commercial Communications
Bus & Motor
STARLINK V2MO, Unknown motor
Mass
530 kg wet, ~500 kg dry
Launch date (UTC)
2024-12-08 (10 months ago)
Launch vehicle
FALCON 9
Launch site
Air Force Eastern Test Range (AFETR)
Object type
Payload
Rocket body
Debris
Shape & HBR
Box + 2 Pan, 17.7 m
Radar Cross Section
36.964 m², Large (>1 m²)

Expand to show TLE details & history
Last TLE update: 1 day ago

TLE from 1 day ago
0 STARLINK-33547
1 62283U 24237S   25285.82221596  .00036104  00000-0  13139-2 0  9999
2 62283  43.0033 320.5257 0001615 281.9355  78.1315 15.27608567 48707
Epoch: 2025-10-12T19:43Z
TLE epoch observation values (Epoch: 2025-10-12T19:43:59.458Z)
Latitude
-0.00008°
Longitude
2.89404°
Altitude
482.512 km
Speed
7.626 km/s
True Right ascension
21h 22m 06s
True Declination
0° 00' 00"
Sunlit
Object was in full shadow at epoch
Visualization orbit readout
Latitude
Unknown
Longitude
Unknown
Altitude
Unknown
Speed
Unknown
Apparent Right ascension
Unknown
Apparent Declination
Unknown
Sunlit
N/A
Visualization observer readout
Local Sidereal Time
18:38:22
Azimuth
Unknown
Elevation
Unknown
Doppler factor
Unknown
Orbital elements
Apogee altitude
486.017 km
Perigee altitude
483.8 km
Semi-major axis
6,863.045 km
Eccentricity
0.00016
Inclination
43.0033°
RAAN
320.5257°
Arg. of periapsis
281.9355°
True anomaly
78.14961°
Mean anomaly
78.1315°
Eccentric anomaly
78.14056°
Mean motion
3.8174 °/min
Orbital period
94.3 mins
BSTAR
0.0013139
Loading maneuver chart data...
Computing Atmospheric mass density...
Loading historical data...
Loading historical data...
Loading historical data...
Loading historical data...
Loading historical data...
Loading historical data...
Loading historical data...

Documentation

Showing up to 5 results
|